Погода в Октябрьской Готне

Россия / Белгородская область     50°39′25″N   35°53′51″E
темп.,
°C
ветер,
м/с
пор.,
м/с
влажн.,
%
обл.,
%
осадки,
мм/ч
давл.,
гПа
погр.,
м
14 апреля, ср
ср1400:00+10ю368270 0.0 1021332
03:00+8ююв2387100 0.0 102152
06:00+7юв228881 0.0 102023
09:00+11юв2272100 0.0 1019262
12:00+12ю126690 0.0 1018538
15:00+16ююв1353100 0.0 10161360
18:00+15ююз2361100 0.5 1016358
21:00+13ссз116998 0.9 101612
15 апреля, чт
чт1500:00+11зсз228124 1.4 101463
03:00+10вюв1183100 1.4 101410
06:00+9зюз1184100 0.0 101411
09:00+12ююз2273100 0.1 1014323
12:00+15ююз555998 1.3 10131215
15:00+16ю464778 1.6 10121920
18:00+13ю566113 0.1 1012924
21:00+10ю5781100 0.7 1013502
16 апреля, пт
пт1600:00+9ююв238950 1.2 1013177
03:00+8юв369356 1.3 1013165
06:00+8юв37908 0.3 1014258
09:00+10ююв577678 0.3 1015871
12:00+11ю685858 0.0 10151487
15:00+11ю675869 0.1 10161145
18:00+11ю576117 0.0 1017799
21:00+8ююв237746 0.0 101864
17 апреля, сб
сб1700:00+7вюв11819 0.0 101911
03:00+6ююв1186100 0.0 102011
06:00+6в1290100 0.4 102069
09:00+7зюз3389100 1.8 1020235
12:00+7зсз3386100 2.4 1021621
15:00+7з3485100 2.6 1021544
18:00+8ссз238040 0.2 1021434
21:00+6ссв1190100 0.3 102258
18 апреля, вс
вс1800:00+6св1291100 0.7 102260
03:00+6всв259291 0.9 1022163
06:00+4в359682 0.0 1023122
09:00+7всв3379100 0.1 1023491
12:00+10всв2265100 0.4 1023950
15:00+9в5474100 1.9 1023959
18:00+10в336934 0.2 1023852
21:00+7в47915 0.3 1024220